397  
ASUS44 KLCH 192211  
RWRLCH  
REGIONAL WEATHER ROUNDUP  
NATIONAL WEATHER SERVICE LAKE CHARLES LA  
500 PM CDT WED SEP 19 2018  
 
NOTE: "FAIR" INDICATES FEW OR NO CLOUDS BELOW 12,000 FEET WITH NO  
SIGNIFICANT WEATHER AND/OR S TO VISIBILITY
.  
 
ACROSS SOUTHEAST TEXAS  
 
CITY SKY/WX TMP DP RH WIND PRES REMARKS
 
BEAUMONT FAIR 92 71 50 S8 29.89F  
BEAUMONT CITY NOT AVBL  
ORANGE FAIR 91 75 57 SW9 29.92F HX 102  
JASPER HVY RAIN 78 69 75 CALM 29.96R VSB 1  

 
 
ACROSS CENTRAL LOUISIANA  
 
CITY SKY/WX TMP DP RH WIND PRES REMARKS
 
LEESVILLE NOT AVBL  
FULLERTON MOCLDY 76 76 100 S3 29.91F THUNDER FOG  
ALEXANDRIA INT PTSUNNY 87 73 62 S15 29.90R  
ESLER FIELD FAIR 92 75 57 SW9 29.90R HX 103  
DERIDDER FAIR 89 73 59 E9 29.95R  
OAKDALE TSTM 74 69 85 S5 29.96R  
OPELOUSAS FAIR 82 73 73 W5G16 29.91R  

 
 
ACROSS SOUTHWEST AND SOUTH CENTRAL LOUISIANA  
 
CITY SKY/WX TMP DP RH WIND PRES REMARKS
 
DEQUINCY FAIR 91 74 56 S7 29.91R HX 100  
SULPHUR FAIR 92 73 55 S7 29.92R HX 100  
LAKE CHARLES FAIR 91 75 59 SW7 29.91S HX 101  
CHENNAULT INT MOSUNNY 91 75 59 S6 29.91F HX 102  
CAMERON PHI CLEAR 88 75 66 S5 29.90S  
GRAND CHENIER CLEAR 91 75 59 SW6 29.91R HX 102  
JENNINGS FAIR 91 76 62 SW8 29.90S HX 103  
LAFAYETTE FAIR 90 77 65 S7 29.90S HX 103  
NEW IBERIA FAIR 92 75 57 SW9 29.91S HX 103  
ABBEVILLE FAIR 91 76 62 SW7 29.91R HX 103  
PATTERSON CLOUDY 93 80 65 S8 29.91S HX 112  
SALT POINT N/A N/A N/A N/A VRB5 29.89F  

 
 
SELECTED SITES ACROSS THE REGION  
 
CITY SKY/WX TMP DP RH WIND PRES REMARKS
 
HOUSTON BUSH FAIR 92 74 55 SE10 29.89F HX 101  
HOUSTON HOBBY FAIR 90 73 57 SE13 29.89F  
GALVESTON FAIR 88 76 67 S8 29.92F  
COLLEGE STAT SUNNY 93 70 46 S13 29.88F  
CONROE SUNNY 93 73 52 S7 29.90F HX 102  
HUNTSVILLE PTSUNNY 94 68 42 S9 29.89F  
LUFKIN SUNNY 93 74 53 S7 29.89F HX 103  
SHREVEPORT PTSUNNY 84 74 71 W10G25 29.88F  
MONROE FAIR 99 70 38 E5 29.88F HX 106  
NATCHEZ MS FAIR 95 69 42 E5 29.90F HX 100  
BATON ROUGE FAIR 91 73 55 E7 29.88F  
N.O. INTL ARPT PTSUNNY 94 75 54 SE9 29.91S HX 105  
SLIDELL FAIR 92 72 51 SE8 29.90F  

 
 
MARINE REPORTS  
 
STATION/POSITION TIME SKY/WX TEMP WIND PRES VSBY
 
AIR SEA DIR/SP/G  
(UTC) (F) (DEG/KT/KT) (MB) (MI)  
BUOY 30 S HIGH I 2150 86 160/ 6/ 8 1013.2F  
WVE H/P(F/S)= 1  
 
SEA RIM ST PARK 2200 86 160/ 8/ 9 1013.1F  
PORT ARTHUR 2142 88 86 190/ 7/ 10 1012.9F  
SABINE PASS N 2142 87 91 190/ 7/ 10 1014.2F  
TEXAS POINT NOT AVBL  
CALCASIEU PASS 2148 86 88 210/ 5/ 6 1012.2F  
LK CHARLES BEACH 2142 90 88 1012.5R  
MARSH ISLAND 2100 90 N/A  
FRESH WATER LOCK 2142 87 90 170/ 7/ 10 1012.7F  
AMERADA PASS 2142 90 88 1013.0R  

 
 
 
CLICK HERE TO GO TO PREVIOUS BULLETINS.

The Nexlab LA Page
The Nexlab TX Page Main Text Page